Year,Month,Day,Hour,Minute,Value (Times are PST for temperature in C)
2014,12,12,00,00,10.30
2014,12,12,00,01,10.30
2014,12,12,00,02,10.30
2014,12,12,00,03,10.30
2014,12,12,00,04,10.30
2014,12,12,00,05,10.30
2014,12,12,00,06,10.30
2014,12,12,00,07,10.30
2014,12,12,00,08,10.30
2014,12,12,00,09,10.30
2014,12,12,00,10,10.30
2014,12,12,00,11,10.30
2014,12,12,00,12,10.30
2014,12,12,00,13,10.20
2014,12,12,00,14,10.30
2014,12,12,00,15,10.30
2014,12,12,00,16,10.30
2014,12,12,00,17,10.30
2014,12,12,00,18,10.30
2014,12,12,00,19,10.40
2014,12,12,00,20,10.40
2014,12,12,00,21,10.40
2014,12,12,00,22,10.40
2014,12,12,00,23,10.30
2014,12,12,00,24,10.30
2014,12,12,00,25,10.30
2014,12,12,00,26,10.30
2014,12,12,00,27,10.30
2014,12,12,00,28,10.30
2014,12,12,00,29,10.30
2014,12,12,00,30,10.30
2014,12,12,00,31,10.20
2014,12,12,00,32,10.20
2014,12,12,00,33,10.20
2014,12,12,00,34,10.20
2014,12,12,00,35,10.20
2014,12,12,00,36,10.20
2014,12,12,00,37,10.10
2014,12,12,00,38,10.10
2014,12,12,00,39,10.10
2014,12,12,00,40,10.10
2014,12,12,00,41,10.20
2014,12,12,00,42,10.20
2014,12,12,00,43,10.20
2014,12,12,00,44,10.20
2014,12,12,00,45,10.20
2014,12,12,00,46,10.20
2014,12,12,00,47,10.30
2014,12,12,00,48,10.30
2014,12,12,00,49,10.30
2014,12,12,00,50,10.30
2014,12,12,00,51,10.30
2014,12,12,00,52,10.30
2014,12,12,00,53,10.30
2014,12,12,00,54,10.30
2014,12,12,00,55,10.30
2014,12,12,00,56,10.20
2014,12,12,00,57,10.20
2014,12,12,00,58,10.20
2014,12,12,00,59,10.20
2014,12,12,01,00,10.20
2014,12,12,01,01,10.20
2014,12,12,01,02,10.20
2014,12,12,01,03,10.20
2014,12,12,01,04,10.20
2014,12,12,01,05,10.20
2014,12,12,01,06,10.20
2014,12,12,01,07,10.20
2014,12,12,01,08,10.20
2014,12,12,01,09,10.20
2014,12,12,01,10,10.20
2014,12,12,01,11,10.20
2014,12,12,01,12,10.20
2014,12,12,01,13,10.20
2014,12,12,01,14,10.20
2014,12,12,01,15,10.20
2014,12,12,01,16,10.20
2014,12,12,01,17,10.20
2014,12,12,01,18,10.30
2014,12,12,01,19,10.30
2014,12,12,01,20,10.30
2014,12,12,01,21,10.30
2014,12,12,01,22,10.40
2014,12,12,01,23,10.40
2014,12,12,01,24,10.40
2014,12,12,01,25,10.50
2014,12,12,01,26,10.50
2014,12,12,01,27,10.60
2014,12,12,01,28,10.60
2014,12,12,01,29,10.60
2014,12,12,01,30,10.60
2014,12,12,01,31,10.60
2014,12,12,01,32,10.60
2014,12,12,01,33,10.60
2014,12,12,01,34,10.60
2014,12,12,01,35,10.60
2014,12,12,01,36,10.60
2014,12,12,01,37,10.60
2014,12,12,01,38,10.70
2014,12,12,01,39,10.70
2014,12,12,01,40,10.70
2014,12,12,01,41,10.70
2014,12,12,01,42,10.60
2014,12,12,01,43,10.60
2014,12,12,01,44,10.60
2014,12,12,01,45,10.60
2014,12,12,01,46,10.60
2014,12,12,01,47,10.60
2014,12,12,01,48,10.60
2014,12,12,01,49,10.60
2014,12,12,01,50,10.60
2014,12,12,01,51,10.50
2014,12,12,01,52,10.50
2014,12,12,01,53,10.40
2014,12,12,01,54,10.40
2014,12,12,01,55,10.30
2014,12,12,01,56,10.30
2014,12,12,01,57,10.30
2014,12,12,01,58,10.20
2014,12,12,01,59,10.20
2014,12,12,02,00,10.20
2014,12,12,02,01,10.20
2014,12,12,02,02,10.10
2014,12,12,02,03,10.10
2014,12,12,02,04,10.10
2014,12,12,02,05,10.10
2014,12,12,02,06,10.10
2014,12,12,02,07,10.10
2014,12,12,02,08,10.10
2014,12,12,02,09,10.10
2014,12,12,02,10,10.10
2014,12,12,02,11,10.00
2014,12,12,02,12,10.00
2014,12,12,02,13,10.00
2014,12,12,02,14,9.90
2014,12,12,02,15,9.90
2014,12,12,02,16,9.90
2014,12,12,02,17,9.90
2014,12,12,02,18,9.80
2014,12,12,02,19,9.80
2014,12,12,02,20,9.70
2014,12,12,02,21,9.70
2014,12,12,02,22,9.70
2014,12,12,02,23,9.60
2014,12,12,02,24,9.60
2014,12,12,02,25,9.60
2014,12,12,02,26,9.60
2014,12,12,02,27,9.60
2014,12,12,02,28,9.60
2014,12,12,02,29,9.60
2014,12,12,02,30,9.50
2014,12,12,02,31,9.50
2014,12,12,02,32,9.50
2014,12,12,02,33,9.40
2014,12,12,02,34,9.50
2014,12,12,02,35,9.50
2014,12,12,02,36,9.60
2014,12,12,02,37,9.60
2014,12,12,02,38,9.60
2014,12,12,02,39,9.60
2014,12,12,02,40,9.60
2014,12,12,02,41,9.60
2014,12,12,02,42,9.60
2014,12,12,02,43,9.70
2014,12,12,02,44,9.70
2014,12,12,02,45,9.80
2014,12,12,02,46,9.90
2014,12,12,02,47,10.00
2014,12,12,02,48,10.00
2014,12,12,02,49,10.10
2014,12,12,02,50,10.10
2014,12,12,02,51,10.10
2014,12,12,02,52,10.10
2014,12,12,02,53,10.10
2014,12,12,02,54,10.10
2014,12,12,02,55,10.20
2014,12,12,02,56,10.20
2014,12,12,02,57,10.20
2014,12,12,02,58,10.20
2014,12,12,02,59,10.30
2014,12,12,03,00,10.30
2014,12,12,03,01,10.40
2014,12,12,03,02,10.40
2014,12,12,03,03,10.40
2014,12,12,03,04,10.40
2014,12,12,03,05,10.40
2014,12,12,03,06,10.40
2014,12,12,03,07,10.40
2014,12,12,03,08,10.40
2014,12,12,03,09,10.40
2014,12,12,03,10,10.40
2014,12,12,03,11,10.40
2014,12,12,03,12,10.40
2014,12,12,03,13,10.40
2014,12,12,03,14,10.40
2014,12,12,03,15,10.50
2014,12,12,03,16,10.50
2014,12,12,03,17,10.50
2014,12,12,03,18,10.50
2014,12,12,03,19,10.50
2014,12,12,03,20,10.50
2014,12,12,03,21,10.50
2014,12,12,03,22,10.60
2014,12,12,03,23,10.60
2014,12,12,03,24,10.50
2014,12,12,03,25,10.50
2014,12,12,03,26,10.50
2014,12,12,03,27,10.50
2014,12,12,03,28,10.50
2014,12,12,03,29,10.50
2014,12,12,03,30,10.50
2014,12,12,03,31,10.60
2014,12,12,03,32,10.60
2014,12,12,03,33,10.60
2014,12,12,03,34,10.60
2014,12,12,03,35,10.60
2014,12,12,03,36,10.60
2014,12,12,03,37,10.60
2014,12,12,03,38,10.60
2014,12,12,03,39,10.60
2014,12,12,03,40,10.60
2014,12,12,03,41,10.60
2014,12,12,03,42,10.60
2014,12,12,03,43,10.50
2014,12,12,03,44,10.50
2014,12,12,03,45,10.50
2014,12,12,03,46,10.50
2014,12,12,03,47,10.40
2014,12,12,03,48,10.40
2014,12,12,03,49,10.40
2014,12,12,03,50,10.40
2014,12,12,03,51,10.40
2014,12,12,03,52,10.40
2014,12,12,03,53,10.40
2014,12,12,03,54,10.30
2014,12,12,03,55,10.30
2014,12,12,03,56,10.30
2014,12,12,03,57,10.30
2014,12,12,03,58,10.30
2014,12,12,03,59,10.30
2014,12,12,04,00,10.30
2014,12,12,04,01,10.30
2014,12,12,04,02,10.30
2014,12,12,04,03,10.30
2014,12,12,04,04,10.30
2014,12,12,04,05,10.30
2014,12,12,04,06,10.30
2014,12,12,04,07,10.30
2014,12,12,04,08,10.20
2014,12,12,04,09,10.20
2014,12,12,04,10,10.20
2014,12,12,04,11,10.20
2014,12,12,04,12,10.20
2014,12,12,04,13,10.20
2014,12,12,04,14,10.20
2014,12,12,04,15,10.20
2014,12,12,04,16,10.20
2014,12,12,04,17,10.30
2014,12,12,04,18,10.30
2014,12,12,04,19,10.30
2014,12,12,04,20,10.30
2014,12,12,04,21,10.30
2014,12,12,04,22,10.30
2014,12,12,04,23,10.40
2014,12,12,04,24,10.40
2014,12,12,04,25,10.40
2014,12,12,04,26,10.30
2014,12,12,04,27,10.30
2014,12,12,04,28,10.30
2014,12,12,04,29,10.30
2014,12,12,04,30,10.30
2014,12,12,04,31,10.30
2014,12,12,04,32,10.20
2014,12,12,04,33,10.20
2014,12,12,04,34,10.20
2014,12,12,04,35,10.10
2014,12,12,04,36,10.10
2014,12,12,04,37,10.10
2014,12,12,04,38,10.10
2014,12,12,04,39,10.00
2014,12,12,04,40,10.00
2014,12,12,04,41,10.00
2014,12,12,04,42,9.90
2014,12,12,04,43,9.90
2014,12,12,04,44,9.90
2014,12,12,04,45,9.80
2014,12,12,04,46,9.80
2014,12,12,04,47,9.70
2014,12,12,04,48,9.70
2014,12,12,04,49,9.70
2014,12,12,04,50,9.60
2014,12,12,04,51,9.60
2014,12,12,04,52,9.60
2014,12,12,04,53,9.60
2014,12,12,04,54,9.60
2014,12,12,04,55,9.60
2014,12,12,04,56,9.60
2014,12,12,04,57,9.60
2014,12,12,04,58,9.60
2014,12,12,04,59,9.60
2014,12,12,05,00,9.70
2014,12,12,05,01,9.70
2014,12,12,05,02,9.80
2014,12,12,05,03,9.80
2014,12,12,05,04,9.80
2014,12,12,05,05,9.80
2014,12,12,05,06,9.80
2014,12,12,05,07,9.80
2014,12,12,05,08,9.80
2014,12,12,05,09,9.80
2014,12,12,05,10,9.80
2014,12,12,05,11,9.80
2014,12,12,05,12,9.80
2014,12,12,05,13,9.80
2014,12,12,05,14,9.90
2014,12,12,05,15,9.90
2014,12,12,05,16,9.90
2014,12,12,05,17,9.90
2014,12,12,05,18,9.90
2014,12,12,05,19,10.00
2014,12,12,05,20,10.00
2014,12,12,05,21,10.10
2014,12,12,05,22,10.10
2014,12,12,05,23,10.10
2014,12,12,05,24,10.10
2014,12,12,05,25,10.10
2014,12,12,05,26,10.10
2014,12,12,05,27,10.10
2014,12,12,05,28,10.10
2014,12,12,05,29,10.10
2014,12,12,05,30,10.10
2014,12,12,05,31,10.10
2014,12,12,05,32,10.10
2014,12,12,05,33,10.10
2014,12,12,05,34,10.10
2014,12,12,05,35,10.10
2014,12,12,05,36,10.10
2014,12,12,05,37,10.10
2014,12,12,05,38,10.10
2014,12,12,05,39,10.10
2014,12,12,05,40,10.00
2014,12,12,05,41,10.00
2014,12,12,05,42,10.00
2014,12,12,05,43,9.90
2014,12,12,05,44,9.90
2014,12,12,05,45,9.80
2014,12,12,05,46,9.80
2014,12,12,05,47,9.80
2014,12,12,05,48,9.70
2014,12,12,05,49,9.70
2014,12,12,05,50,9.70
2014,12,12,05,51,9.60
2014,12,12,05,52,9.60
2014,12,12,05,53,9.60
2014,12,12,05,54,9.50
2014,12,12,05,55,9.50
2014,12,12,05,56,9.40
2014,12,12,05,57,9.40
2014,12,12,05,58,9.30
2014,12,12,05,59,9.30
2014,12,12,06,00,9.20
2014,12,12,06,01,9.20
2014,12,12,06,02,9.10
2014,12,12,06,03,9.10
2014,12,12,06,04,9.00
2014,12,12,06,05,9.00
2014,12,12,06,06,8.90
2014,12,12,06,07,8.80
2014,12,12,06,08,8.70
2014,12,12,06,09,8.70
2014,12,12,06,10,8.60
2014,12,12,06,11,8.50
2014,12,12,06,12,8.40
2014,12,12,06,13,8.40
2014,12,12,06,14,8.30
2014,12,12,06,15,8.30
2014,12,12,06,16,8.20
2014,12,12,06,17,8.10
2014,12,12,06,18,8.10
2014,12,12,06,19,8.00
2014,12,12,06,20,8.00
2014,12,12,06,21,8.00
2014,12,12,06,22,7.90
2014,12,12,06,23,7.90
2014,12,12,06,24,7.90
2014,12,12,06,25,7.80
2014,12,12,06,26,7.80
2014,12,12,06,27,7.80
2014,12,12,06,28,7.70
2014,12,12,06,29,7.70
2014,12,12,06,30,7.70
2014,12,12,06,31,7.60
2014,12,12,06,32,7.60
2014,12,12,06,33,7.50
2014,12,12,06,34,7.50
2014,12,12,06,35,7.50
2014,12,12,06,36,7.40
2014,12,12,06,37,7.40
2014,12,12,06,38,7.40
2014,12,12,06,39,7.30
2014,12,12,06,40,7.30
2014,12,12,06,41,7.30
2014,12,12,06,42,7.30
2014,12,12,06,43,7.20
2014,12,12,06,44,7.20
2014,12,12,06,45,7.20
2014,12,12,06,46,7.20
2014,12,12,06,47,7.20
2014,12,12,06,48,7.20
2014,12,12,06,49,7.20
2014,12,12,06,50,7.20
2014,12,12,06,51,7.20
2014,12,12,06,52,7.30
2014,12,12,06,53,7.30
2014,12,12,06,54,7.30
2014,12,12,06,55,7.30
2014,12,12,06,56,7.30
2014,12,12,06,57,7.30
2014,12,12,06,58,7.30
2014,12,12,06,59,7.30
2014,12,12,07,00,7.30
2014,12,12,07,01,7.30
2014,12,12,07,02,7.30
2014,12,12,07,03,7.40
2014,12,12,07,04,7.40
2014,12,12,07,05,7.40
2014,12,12,07,06,7.40
2014,12,12,07,07,7.30
2014,12,12,07,08,7.30
2014,12,12,07,09,7.30
2014,12,12,07,10,7.30
2014,12,12,07,11,7.20
2014,12,12,07,12,7.20
2014,12,12,07,13,7.20
2014,12,12,07,14,7.20
2014,12,12,07,15,7.20
2014,12,12,07,16,7.20
2014,12,12,07,17,7.20
2014,12,12,07,18,7.20
2014,12,12,07,19,7.20
2014,12,12,07,20,7.10
2014,12,12,07,21,7.10
2014,12,12,07,22,7.10
2014,12,12,07,23,7.00
2014,12,12,07,24,6.90
2014,12,12,07,25,6.90
2014,12,12,07,26,6.90
2014,12,12,07,27,6.80
2014,12,12,07,28,6.80
2014,12,12,07,29,6.80
2014,12,12,07,30,6.70
2014,12,12,07,31,6.70
2014,12,12,07,32,6.70
2014,12,12,07,33,6.70
2014,12,12,07,34,6.60
2014,12,12,07,35,6.60
2014,12,12,07,36,6.60
2014,12,12,07,37,6.60
2014,12,12,07,38,6.60
2014,12,12,07,39,6.60
2014,12,12,07,40,6.50
2014,12,12,07,41,6.50
2014,12,12,07,42,6.50
2014,12,12,07,43,6.50
2014,12,12,07,44,6.40
2014,12,12,07,45,6.40
2014,12,12,07,46,6.40
2014,12,12,07,47,6.40
2014,12,12,07,48,6.40
2014,12,12,07,49,6.40
2014,12,12,07,50,6.40
2014,12,12,07,51,6.40
2014,12,12,07,52,6.40
2014,12,12,07,53,6.40
2014,12,12,07,54,6.40
2014,12,12,07,55,6.40
2014,12,12,07,56,6.40
2014,12,12,07,57,6.40
2014,12,12,07,58,6.40
2014,12,12,07,59,6.40
2014,12,12,08,00,6.40
2014,12,12,08,01,6.40
2014,12,12,08,02,6.40
2014,12,12,08,03,6.50
2014,12,12,08,04,6.50
2014,12,12,08,05,6.50
2014,12,12,08,06,6.60
2014,12,12,08,07,6.60
2014,12,12,08,08,6.60
2014,12,12,08,09,6.60
2014,12,12,08,10,6.60
2014,12,12,08,11,6.60
2014,12,12,08,12,6.60
2014,12,12,08,13,6.60
2014,12,12,08,14,6.60
2014,12,12,08,15,6.60
2014,12,12,08,16,6.60
2014,12,12,08,17,6.60
2014,12,12,08,18,6.50
2014,12,12,08,19,6.50
2014,12,12,08,20,6.50
2014,12,12,08,21,6.50
2014,12,12,08,22,6.40
2014,12,12,08,23,6.40
2014,12,12,08,24,6.40
2014,12,12,08,25,6.40
2014,12,12,08,26,6.40
2014,12,12,08,27,6.40
2014,12,12,08,28,6.40
2014,12,12,08,29,6.30
2014,12,12,08,30,6.30
2014,12,12,08,31,6.30
2014,12,12,08,32,6.30
2014,12,12,08,33,6.30
2014,12,12,08,34,6.30
2014,12,12,08,35,6.30
2014,12,12,08,36,6.30
2014,12,12,08,37,6.30
2014,12,12,08,38,6.30
2014,12,12,08,39,6.30
2014,12,12,08,40,6.30
2014,12,12,08,41,6.30
2014,12,12,08,42,6.30
2014,12,12,08,43,6.30
2014,12,12,08,44,6.30
2014,12,12,08,45,6.30
2014,12,12,08,46,6.30
2014,12,12,08,47,6.40
2014,12,12,08,48,6.40
2014,12,12,08,49,6.40
2014,12,12,08,50,6.40
2014,12,12,08,51,6.40
2014,12,12,08,52,6.30
2014,12,12,08,53,6.30
2014,12,12,08,54,6.30
2014,12,12,08,55,6.30
2014,12,12,08,56,6.30
2014,12,12,08,57,6.30
2014,12,12,08,58,6.30
2014,12,12,08,59,6.30
2014,12,12,09,00,6.30
2014,12,12,09,01,6.30
2014,12,12,09,02,6.30
2014,12,12,09,03,6.30
2014,12,12,09,04,6.30
2014,12,12,09,05,6.30
2014,12,12,09,06,6.30
2014,12,12,09,07,6.40
2014,12,12,09,08,6.40
2014,12,12,09,09,6.50
2014,12,12,09,10,6.50
2014,12,12,09,11,6.50
2014,12,12,09,12,6.70
2014,12,12,09,13,6.80
2014,12,12,09,14,6.90
2014,12,12,09,15,7.00
2014,12,12,09,16,7.00
2014,12,12,09,17,7.00
2014,12,12,09,18,7.00
2014,12,12,09,19,7.00
2014,12,12,09,20,7.10
2014,12,12,09,21,7.10
2014,12,12,09,22,7.10
2014,12,12,09,23,7.20
2014,12,12,09,24,7.20
2014,12,12,09,25,7.20
2014,12,12,09,26,7.20
2014,12,12,09,27,7.30
2014,12,12,09,28,7.30
2014,12,12,09,29,7.30
2014,12,12,09,30,7.40
2014,12,12,09,31,7.40
2014,12,12,09,32,7.40
2014,12,12,09,33,7.40
2014,12,12,09,34,7.40
2014,12,12,09,35,7.40
2014,12,12,09,36,7.40
2014,12,12,09,37,7.50
2014,12,12,09,38,7.50
2014,12,12,09,39,7.50
2014,12,12,09,40,7.50
2014,12,12,09,41,7.60
2014,12,12,09,42,7.60
2014,12,12,09,43,7.60
2014,12,12,09,44,7.70
2014,12,12,09,45,7.70
2014,12,12,09,46,7.70
2014,12,12,09,47,7.70
2014,12,12,09,48,7.80
2014,12,12,09,49,7.80
2014,12,12,09,50,7.80
2014,12,12,09,51,7.90
2014,12,12,09,52,8.00
2014,12,12,09,53,8.10
2014,12,12,09,54,8.20
2014,12,12,09,55,8.20
2014,12,12,09,56,8.20
2014,12,12,09,57,8.30
2014,12,12,09,58,8.30
2014,12,12,09,59,8.40
2014,12,12,10,00,8.40
2014,12,12,10,01,8.40
2014,12,12,10,02,8.40
2014,12,12,10,03,8.40
2014,12,12,10,04,8.40
2014,12,12,10,05,8.40
2014,12,12,10,06,8.50
2014,12,12,10,07,8.50
2014,12,12,10,08,8.50
2014,12,12,10,09,8.60
2014,12,12,10,10,8.60
2014,12,12,10,11,8.60
2014,12,12,10,12,8.60
2014,12,12,10,13,8.70
2014,12,12,10,14,8.80
2014,12,12,10,15,8.90
2014,12,12,10,16,9.10
2014,12,12,10,17,9.20
2014,12,12,10,18,9.40
2014,12,12,10,19,9.50
2014,12,12,10,20,9.60
2014,12,12,10,21,9.60
2014,12,12,10,22,9.70
2014,12,12,10,23,9.70
2014,12,12,10,24,9.80
2014,12,12,10,25,9.80
2014,12,12,10,26,9.80
2014,12,12,10,27,9.80
2014,12,12,10,28,9.80
2014,12,12,10,29,9.80
2014,12,12,10,30,9.80
2014,12,12,10,31,9.90
2014,12,12,10,32,9.90
2014,12,12,10,33,10.00
2014,12,12,10,34,10.00
2014,12,12,10,35,10.10
2014,12,12,10,36,10.10
2014,12,12,10,37,10.10
2014,12,12,10,38,10.10
2014,12,12,10,39,10.10
2014,12,12,10,40,10.10
2014,12,12,10,41,10.10
2014,12,12,10,42,10.20
2014,12,12,10,43,10.20
2014,12,12,10,44,10.20
2014,12,12,10,45,10.10
2014,12,12,10,46,10.10
2014,12,12,10,47,10.10
2014,12,12,10,48,10.10
2014,12,12,10,49,10.10
2014,12,12,10,50,10.10
2014,12,12,10,51,10.10
2014,12,12,10,52,10.20
2014,12,12,10,53,10.20
2014,12,12,10,54,10.10
2014,12,12,10,55,10.10
2014,12,12,10,56,10.10
2014,12,12,10,57,10.10
2014,12,12,10,58,10.10
2014,12,12,10,59,10.10
2014,12,12,11,00,10.20
2014,12,12,11,01,10.20
2014,12,12,11,02,10.20
2014,12,12,11,03,10.20
2014,12,12,11,04,10.20
2014,12,12,11,05,10.10
2014,12,12,11,06,10.10
2014,12,12,11,07,10.10
2014,12,12,11,08,10.10
2014,12,12,11,09,10.10
2014,12,12,11,10,10.10
2014,12,12,11,11,10.10
2014,12,12,11,12,10.10
2014,12,12,11,13,10.00
2014,12,12,11,14,10.00
2014,12,12,11,15,10.00
2014,12,12,11,16,10.00
2014,12,12,11,17,10.10
2014,12,12,11,18,10.00
2014,12,12,11,19,9.90
2014,12,12,11,20,9.90
2014,12,12,11,21,9.90
2014,12,12,11,22,9.90
2014,12,12,11,23,9.90
2014,12,12,11,24,9.90
2014,12,12,11,25,10.00
2014,12,12,11,26,10.00
2014,12,12,11,27,10.00
2014,12,12,11,28,10.00
2014,12,12,11,29,10.00
2014,12,12,11,30,10.10
2014,12,12,11,31,10.10
2014,12,12,11,32,10.10
2014,12,12,11,33,10.10
2014,12,12,11,34,10.10
2014,12,12,11,35,10.10
2014,12,12,11,36,10.20
2014,12,12,11,37,10.20
2014,12,12,11,38,10.20
2014,12,12,11,39,10.20
2014,12,12,11,40,10.30
2014,12,12,11,41,10.30
2014,12,12,11,42,10.30
2014,12,12,11,43,10.30
2014,12,12,11,44,10.40
2014,12,12,11,45,10.40
2014,12,12,11,46,10.40
2014,12,12,11,47,10.50
2014,12,12,11,48,10.50
2014,12,12,11,49,10.60
2014,12,12,11,50,10.60
2014,12,12,11,51,10.70
2014,12,12,11,52,10.70
2014,12,12,11,53,10.80
2014,12,12,11,54,10.80
2014,12,12,11,55,10.90
2014,12,12,11,56,10.90
2014,12,12,11,57,10.90
2014,12,12,11,58,11.00
2014,12,12,11,59,11.00
2014,12,12,12,00,11.00
2014,12,12,12,01,11.10
2014,12,12,12,02,11.10
2014,12,12,12,03,11.10
2014,12,12,12,04,11.10
2014,12,12,12,05,11.00
2014,12,12,12,06,11.10
2014,12,12,12,07,11.10
2014,12,12,12,08,11.10
2014,12,12,12,09,11.10
2014,12,12,12,10,11.00
2014,12,12,12,11,11.00
2014,12,12,12,12,11.00
2014,12,12,12,13,11.00
2014,12,12,12,14,11.10
2014,12,12,12,15,11.10
2014,12,12,12,16,11.10
2014,12,12,12,17,11.10
2014,12,12,12,18,11.10
2014,12,12,12,19,11.20
2014,12,12,12,20,11.20
2014,12,12,12,21,11.20
2014,12,12,12,22,11.30
2014,12,12,12,23,11.30
2014,12,12,12,24,11.30
2014,12,12,12,25,11.40
2014,12,12,12,26,11.40
2014,12,12,12,27,11.50
2014,12,12,12,28,11.60
2014,12,12,12,29,11.70
2014,12,12,12,30,11.80
2014,12,12,12,31,11.80
2014,12,12,12,32,11.90
2014,12,12,12,33,12.00
2014,12,12,12,34,12.10
2014,12,12,12,35,12.20
2014,12,12,12,36,12.20
2014,12,12,12,37,12.30
2014,12,12,12,38,12.30
2014,12,12,12,39,12.40
2014,12,12,12,40,12.40
2014,12,12,12,41,12.40
2014,12,12,12,42,12.30
2014,12,12,12,43,12.30
2014,12,12,12,44,12.20
2014,12,12,12,45,12.20
2014,12,12,12,46,12.20
2014,12,12,12,47,12.20
2014,12,12,12,48,12.20
2014,12,12,12,49,12.20
2014,12,12,12,50,12.30
2014,12,12,12,51,12.30
2014,12,12,12,52,12.40
2014,12,12,12,53,12.40
2014,12,12,12,54,12.40
2014,12,12,12,55,12.40
2014,12,12,12,56,12.40
2014,12,12,12,57,12.40
2014,12,12,12,58,12.40
2014,12,12,12,59,12.40
2014,12,12,13,00,12.40
2014,12,12,13,01,12.40
2014,12,12,13,02,12.50
2014,12,12,13,03,12.50
2014,12,12,13,04,12.50
2014,12,12,13,05,12.50
2014,12,12,13,06,12.50
2014,12,12,13,07,12.50
2014,12,12,13,08,12.50
2014,12,12,13,09,12.60
2014,12,12,13,10,12.60
2014,12,12,13,11,12.60
2014,12,12,13,12,12.60
2014,12,12,13,13,12.60
2014,12,12,13,14,12.70
2014,12,12,13,15,12.70
2014,12,12,13,16,12.70
2014,12,12,13,17,12.70
2014,12,12,13,18,12.70
2014,12,12,13,19,12.70
2014,12,12,13,20,12.60
2014,12,12,13,21,12.60
2014,12,12,13,22,12.60
2014,12,12,13,23,12.60
2014,12,12,13,24,12.70
2014,12,12,13,25,12.70
2014,12,12,13,26,12.70
2014,12,12,13,27,12.70
2014,12,12,13,28,12.70
2014,12,12,13,29,12.60
2014,12,12,13,30,12.60
2014,12,12,13,31,12.60
2014,12,12,13,32,12.60
2014,12,12,13,33,12.60
2014,12,12,13,34,12.50
2014,12,12,13,35,12.50
2014,12,12,13,36,12.50
2014,12,12,13,37,12.50
2014,12,12,13,38,12.40
2014,12,12,13,39,12.40
2014,12,12,13,40,12.40
2014,12,12,13,41,12.40
2014,12,12,13,42,12.40
2014,12,12,13,43,12.40
2014,12,12,13,44,12.40
2014,12,12,13,45,12.40
2014,12,12,13,46,12.40
2014,12,12,13,47,12.40
2014,12,12,13,48,12.40
2014,12,12,13,49,12.30
2014,12,12,13,50,12.30
2014,12,12,13,51,12.30
2014,12,12,13,52,12.30
2014,12,12,13,53,12.30
2014,12,12,13,54,12.30
2014,12,12,13,55,12.30
2014,12,12,13,56,12.30
2014,12,12,13,57,12.30
2014,12,12,13,58,12.30
2014,12,12,13,59,12.30
2014,12,12,14,00,12.30
2014,12,12,14,01,12.30
2014,12,12,14,02,12.30
2014,12,12,14,03,12.30
2014,12,12,14,04,12.30
2014,12,12,14,05,12.30
2014,12,12,14,06,12.20
2014,12,12,14,07,12.20
2014,12,12,14,08,12.20
2014,12,12,14,09,12.30
2014,12,12,14,10,12.30
2014,12,12,14,11,12.30
2014,12,12,14,12,12.30
2014,12,12,14,13,12.30
2014,12,12,14,14,12.30
2014,12,12,14,15,12.30
2014,12,12,14,16,12.30
2014,12,12,14,17,12.30
2014,12,12,14,18,12.30
2014,12,12,14,19,12.20
2014,12,12,14,20,12.10
2014,12,12,14,21,12.10
2014,12,12,14,22,12.00
2014,12,12,14,23,12.00
2014,12,12,14,24,12.00
2014,12,12,14,25,12.10
2014,12,12,14,26,12.10
2014,12,12,14,27,12.00
2014,12,12,14,28,11.90
2014,12,12,14,29,11.90
2014,12,12,14,30,11.90
2014,12,12,14,31,11.80
2014,12,12,14,32,11.80
2014,12,12,14,33,11.80
2014,12,12,14,34,11.70
2014,12,12,14,35,11.70
2014,12,12,14,36,11.80
2014,12,12,14,37,11.70
2014,12,12,14,38,11.70
2014,12,12,14,39,11.60
2014,12,12,14,40,11.60
2014,12,12,14,41,11.60
2014,12,12,14,42,11.60
2014,12,12,14,43,11.60
2014,12,12,14,44,11.60
2014,12,12,14,45,11.60
2014,12,12,14,46,11.50
2014,12,12,14,47,11.50
2014,12,12,14,48,11.50
2014,12,12,14,49,11.40
2014,12,12,14,50,11.30
2014,12,12,14,51,11.20
2014,12,12,14,52,11.20
2014,12,12,14,53,11.10
2014,12,12,14,54,11.10
2014,12,12,14,55,11.00
2014,12,12,14,56,11.00
2014,12,12,14,57,11.00
2014,12,12,14,58,11.00
2014,12,12,14,59,11.10
2014,12,12,15,00,11.10
2014,12,12,15,01,11.10
2014,12,12,15,02,11.10
2014,12,12,15,03,11.00
2014,12,12,15,04,11.00
2014,12,12,15,05,11.00
2014,12,12,15,06,10.90
2014,12,12,15,07,10.90
2014,12,12,15,08,10.90
2014,12,12,15,09,10.90
2014,12,12,15,10,10.90
2014,12,12,15,11,10.90
2014,12,12,15,12,10.90
2014,12,12,15,13,10.90
2014,12,12,15,14,10.90
2014,12,12,15,15,10.80
2014,12,12,15,16,10.80
2014,12,12,15,17,10.70
2014,12,12,15,18,10.70
2014,12,12,15,19,10.70
2014,12,12,15,20,10.60
2014,12,12,15,21,10.50
2014,12,12,15,22,10.40
2014,12,12,15,23,10.40
2014,12,12,15,24,10.40
2014,12,12,15,25,10.30
2014,12,12,15,26,10.30
2014,12,12,15,27,10.20
2014,12,12,15,28,10.20
2014,12,12,15,29,10.10
2014,12,12,15,30,10.10
2014,12,12,15,31,10.10
2014,12,12,15,32,10.10
2014,12,12,15,33,10.00
2014,12,12,15,34,9.90
2014,12,12,15,35,9.80
2014,12,12,15,36,9.80
2014,12,12,15,37,9.70
2014,12,12,15,38,9.70
2014,12,12,15,39,9.70
2014,12,12,15,40,9.60
2014,12,12,15,41,9.60
2014,12,12,15,42,9.50
2014,12,12,15,43,9.50
2014,12,12,15,44,9.40
2014,12,12,15,45,9.40
2014,12,12,15,46,9.30
2014,12,12,15,47,9.30
2014,12,12,15,48,9.30
2014,12,12,15,49,9.20
2014,12,12,15,50,9.20
2014,12,12,15,51,9.10
2014,12,12,15,52,9.10
2014,12,12,15,53,9.10
2014,12,12,15,54,9.00
2014,12,12,15,55,9.00
2014,12,12,15,56,9.00
2014,12,12,15,57,8.90
2014,12,12,15,58,8.90
2014,12,12,15,59,8.90
2014,12,12,16,00,8.90
2014,12,12,16,01,8.80
2014,12,12,16,02,8.80
2014,12,12,16,03,8.80
2014,12,12,16,04,8.80
2014,12,12,16,05,8.80
2014,12,12,16,06,8.80
2014,12,12,16,07,8.70
2014,12,12,16,08,8.70
2014,12,12,16,09,8.60
2014,12,12,16,10,8.60
2014,12,12,16,11,8.60
2014,12,12,16,12,8.60
2014,12,12,16,13,8.50
2014,12,12,16,14,8.50
2014,12,12,16,15,8.50
2014,12,12,16,16,8.40
2014,12,12,16,17,8.40
2014,12,12,16,18,8.40
2014,12,12,16,19,8.40
2014,12,12,16,20,8.30
2014,12,12,16,21,8.30
2014,12,12,16,22,8.30
2014,12,12,16,23,8.30
2014,12,12,16,24,8.30
2014,12,12,16,25,8.30
2014,12,12,16,26,8.20
2014,12,12,16,27,8.20
2014,12,12,16,28,8.20
2014,12,12,16,29,8.20
2014,12,12,16,30,8.20
2014,12,12,16,31,8.20
2014,12,12,16,32,8.20
2014,12,12,16,33,8.20
2014,12,12,16,34,8.20
2014,12,12,16,35,8.10
2014,12,12,16,36,8.10
2014,12,12,16,37,8.10
2014,12,12,16,38,8.10
2014,12,12,16,39,8.00
2014,12,12,16,40,8.00
2014,12,12,16,41,7.90
2014,12,12,16,42,7.90
2014,12,12,16,43,7.90
2014,12,12,16,44,7.80
2014,12,12,16,45,7.80
2014,12,12,16,46,7.80
2014,12,12,16,47,7.80
2014,12,12,16,48,7.70
2014,12,12,16,49,7.70
2014,12,12,16,50,7.70
2014,12,12,16,51,7.70
2014,12,12,16,52,7.60
2014,12,12,16,53,7.60
2014,12,12,16,54,7.60
2014,12,12,16,55,7.50
2014,12,12,16,56,7.50
2014,12,12,16,57,7.50
2014,12,12,16,58,7.40
2014,12,12,16,59,7.40
2014,12,12,17,00,7.40
2014,12,12,17,01,7.40
2014,12,12,17,02,7.30
2014,12,12,17,03,7.30
2014,12,12,17,04,7.30
2014,12,12,17,05,7.30
2014,12,12,17,06,7.20
2014,12,12,17,07,7.20
2014,12,12,17,08,7.20
2014,12,12,17,09,7.20
2014,12,12,17,10,7.20
2014,12,12,17,11,7.20
2014,12,12,17,12,7.20
2014,12,12,17,13,7.10
2014,12,12,17,14,7.10
2014,12,12,17,15,7.10
2014,12,12,17,16,7.10
2014,12,12,17,17,7.00
2014,12,12,17,18,7.00
2014,12,12,17,19,7.00
2014,12,12,17,20,6.90
2014,12,12,17,21,6.90
2014,12,12,17,22,6.90
2014,12,12,17,23,6.90
2014,12,12,17,24,6.90
2014,12,12,17,25,6.90
2014,12,12,17,26,6.90
2014,12,12,17,27,6.80
2014,12,12,17,28,6.80
2014,12,12,17,29,6.80
2014,12,12,17,30,6.80
2014,12,12,17,31,6.80
2014,12,12,17,32,6.80
2014,12,12,17,33,6.80
2014,12,12,17,34,6.80
2014,12,12,17,35,6.80
2014,12,12,17,36,6.80
2014,12,12,17,37,6.80
2014,12,12,17,38,6.80
2014,12,12,17,39,6.90
2014,12,12,17,40,6.90